Change the Weather History Date:

Saturday, January 18, 2014

  Actual Average Record
Temperature  
Mean Temperature 34 °F -  
Max Temperature 41 °F 23 °F 42 °F (2005)
Min Temperature 26 °F 6 °F -14 °F (2012)
Degree Days  
Heating Degree Days 32    
Moisture  
Dew Point 26 °F    
Average Humidity 71    
Maximum Humidity 80    
Minimum Humidity 57    
Precipitation  
Precipitation 0.00 in - - ()
Sea Level Pressure  
Sea Level Pressure 30.00 in    
Wind  
Wind Speed 19 mph (West)    
Max Wind Speed 34 mph    
Max Gust Speed 46 mph    
Visibility 10 miles    
Events      
Averages and records for this station are not official NWS values.
T = Trace of Precipitation, MM = Missing Value Source: NWS Daily Summary

Daily Weather History Graph

Daily Weather History Graph

Search for Another Location

Airport or City:

Trip Planner

Search our weather history database for the weather conditions in past years. The results will help you decide how hot, cold, wet, or windy it might be!

Date:

Astronomy

Jan. 18, 2014 Rise Set
Actual Time 7:38 AM MST 4:40 PM MST
Civil Twilight 7:04 AM MST 5:15 PM MST
Nautical Twilight 6:27 AM MST 5:52 PM MST
Astronomical Twilight 5:50 AM MST 6:29 PM MST
Moon 7:39 PM MST (1/18) 8:27 AM MST (1/18)
Length of Visible Light 10h 10m
Length of Day
9h 02m
Waning Gibbous, 94% of the Moon is Illuminated
Jan 18
Waning Gibbous
Jan 23
Last Quarter
Jan 30
New
Feb 6
First Quarter
Feb 14
Full

Hourly Weather History & Observations

Time (MST) Temp. Windchill Dew Point Humidity Pressure Visibility Wind Dir Wind Speed Gust Speed Precip Events Conditions
12:15 AM 33.8 °F 19.2 °F 26.6 °F 75% 29.92 in 10.0 mi WNW 34.5 mph 46.0 mph N/A   Clear
12:35 AM 33.8 °F 20.3 °F 26.6 °F 75% 29.93 in 10.0 mi WNW 28.8 mph 44.9 mph N/A   Clear
12:55 AM 33.8 °F 20.5 °F 26.6 °F 75% 29.94 in 10.0 mi WNW 27.6 mph 39.1 mph N/A   Clear
1:15 AM 33.8 °F 20.5 °F 26.6 °F 75% 29.96 in 10.0 mi WNW 27.6 mph 38.0 mph N/A   Clear
1:35 AM 33.8 °F 20.3 °F 26.6 °F 75% 29.97 in 10.0 mi WNW 28.8 mph 41.4 mph N/A   Clear
1:55 AM 33.8 °F 21.0 °F 26.6 °F 75% 29.99 in 10.0 mi WNW 25.3 mph 39.1 mph N/A   Clear
2:15 AM 33.8 °F 21.9 °F 26.6 °F 75% 30.00 in 10.0 mi WNW 21.9 mph 32.2 mph N/A   Clear
2:35 AM 33.8 °F 22.2 °F 26.6 °F 75% 30.03 in 10.0 mi NW 20.7 mph 28.8 mph N/A   Clear
2:55 AM 33.8 °F 22.8 °F 24.8 °F 70% 30.04 in 10.0 mi NW 18.4 mph 29.9 mph N/A   Clear
3:15 AM 32.0 °F 21.2 °F 24.8 °F 75% 30.05 in 10.0 mi NW 16.1 mph 25.3 mph N/A   Clear
3:35 AM 32.0 °F 20.5 °F 24.8 °F 75% 30.06 in 10.0 mi NW 18.4 mph - N/A   Clear
3:55 AM 32.0 °F 21.2 °F 24.8 °F 75% 30.07 in 10.0 mi NW 16.1 mph 24.2 mph N/A   Clear
4:15 AM 30.2 °F 17.8 °F 24.8 °F 80% 30.08 in 10.0 mi NW 19.6 mph 24.2 mph N/A   Clear
4:35 AM 30.2 °F 19.3 °F 24.8 °F 80% 30.09 in 10.0 mi WNW 15.0 mph - N/A   Clear
4:55 AM 30.2 °F 19.8 °F 24.8 °F 80% 30.10 in 10.0 mi WNW 13.8 mph - N/A   Clear
5:15 AM 30.2 °F 18.5 °F 23.0 °F 75% 30.10 in 10.0 mi WNW 17.3 mph 21.9 mph N/A   Clear
5:35 AM 30.2 °F 18.5 °F 23.0 °F 75% 30.10 in 10.0 mi WNW 17.3 mph - N/A   Clear
5:55 AM 30.2 °F 17.1 °F 23.0 °F 75% 30.11 in 10.0 mi WNW 21.9 mph 26.5 mph N/A   Clear
6:15 AM 30.2 °F 18.1 °F 23.0 °F 75% 30.12 in 10.0 mi NW 18.4 mph 27.6 mph N/A   Clear
6:35 AM 30.2 °F 18.9 °F 23.0 °F 75% 30.12 in 10.0 mi NW 16.1 mph 24.2 mph N/A   Clear
6:55 AM 28.4 °F 17.5 °F 23.0 °F 80% 30.13 in 10.0 mi NW 13.8 mph - N/A   Clear
7:15 AM 28.4 °F 17.5 °F 23.0 °F 80% 30.12 in 10.0 mi WNW 13.8 mph - N/A   Clear
7:35 AM 28.4 °F 17.5 °F 21.2 °F 74% 30.13 in 10.0 mi WNW 13.8 mph - N/A   Clear
7:55 AM 28.4 °F 19.7 °F 21.2 °F 74% 30.14 in 10.0 mi West 9.2 mph - N/A   Clear
8:15 AM 26.6 °F 16.8 °F 21.2 °F 80% 30.14 in 10.0 mi WNW 10.4 mph - N/A   Clear
8:35 AM 28.4 °F 19.7 °F 21.2 °F 74% 30.15 in 10.0 mi WNW 9.2 mph - N/A   Clear
8:55 AM 30.2 °F 24.3 °F 21.2 °F 69% 30.16 in 10.0 mi West 5.8 mph - N/A   Clear
9:15 AM 30.2 °F 20.8 °F 23.0 °F 75% 30.17 in 10.0 mi WNW 11.5 mph - N/A   Clear
9:35 AM 32.0 °F 23.6 °F 24.8 °F 75% 30.17 in 10.0 mi West 10.4 mph - N/A   Clear
9:55 AM 33.8 °F 27.0 °F 24.8 °F 70% 30.16 in 10.0 mi West 8.1 mph - N/A   Clear
10:15 AM 33.8 °F 24.8 °F 24.8 °F 70% 30.15 in 10.0 mi West 12.7 mph - N/A   Clear
10:35 AM 35.6 °F 27.1 °F 24.8 °F 65% 30.15 in 10.0 mi West 12.7 mph - N/A   Clear
10:55 AM 35.6 °F 26.6 °F 24.8 °F 65% 30.14 in 10.0 mi West 13.8 mph - N/A   Clear
11:15 AM 35.6 °F 26.6 °F 26.6 °F 70% 30.12 in 10.0 mi West 13.8 mph - N/A   Clear
11:35 AM 37.4 °F 29.8 °F 26.6 °F 65% 30.11 in 10.0 mi West 11.5 mph 17.3 mph N/A   Clear
11:55 AM 37.4 °F 29.8 °F 26.6 °F 65% 30.10 in 10.0 mi West 11.5 mph - N/A   Clear
12:15 PM 39.2 °F 32.5 °F 26.6 °F 61% 30.08 in 10.0 mi West 10.4 mph - N/A   Clear
12:35 PM 39.2 °F 33.6 °F 26.6 °F 61% 30.06 in 10.0 mi West 8.1 mph - N/A   Clear
12:55 PM 39.2 °F 31.6 °F 26.6 °F 61% 30.06 in 10.0 mi SW 12.7 mph - N/A   Clear
1:15 PM 41.0 °F 34.3 °F 26.6 °F 57% 30.05 in 10.0 mi SW 11.5 mph - N/A   Clear
1:55 PM 39.2 °F 32.0 °F 28.4 °F 65% 30.03 in 10.0 mi SW 11.5 mph - N/A   Clear
2:15 PM 39.2 °F 31.6 °F 28.4 °F 65% 30.02 in 10.0 mi SW 12.7 mph - N/A   Clear
2:35 PM 39.2 °F 32.5 °F 28.4 °F 65% 30.00 in 10.0 mi SW 10.4 mph - N/A   Clear
3:15 PM 39.2 °F 31.6 °F 26.6 °F 61% 29.98 in 10.0 mi SW 12.7 mph - N/A   Clear
3:35 PM 39.2 °F 31.6 °F 26.6 °F 61% 29.98 in 10.0 mi SW 12.7 mph - N/A   Clear
3:55 PM 39.2 °F 32.5 °F 26.6 °F 61% 29.97 in 10.0 mi SW 10.4 mph - N/A   Clear
4:15 PM 37.4 °F 29.8 °F 28.4 °F 70% 29.96 in 10.0 mi SW 11.5 mph - N/A   Clear
4:35 PM 35.6 °F 26.6 °F 28.4 °F 75% 29.94 in 10.0 mi SW 13.8 mph - N/A   Clear
4:55 PM 35.6 °F 28.0 °F 28.4 °F 75% 29.93 in 10.0 mi SW 10.4 mph - N/A   Clear
5:15 PM 35.6 °F 29.9 °F 28.4 °F 75% 29.92 in 10.0 mi SW 6.9 mph - N/A   Clear
5:35 PM 35.6 °F 28.6 °F 28.4 °F 75% 29.91 in 10.0 mi SSW 9.2 mph - N/A   Clear
5:55 PM 35.6 °F 28.0 °F 28.4 °F 75% 29.89 in 10.0 mi SW 10.4 mph - N/A   Clear
6:15 PM 37.4 °F 28.5 °F 28.4 °F 70% 29.90 in 10.0 mi SW 15.0 mph - N/A   Clear
6:35 PM 35.6 °F 27.5 °F 26.6 °F 70% 29.89 in 10.0 mi SW 11.5 mph - N/A   Clear
6:55 PM 35.6 °F 27.5 °F 26.6 °F 70% 29.89 in 10.0 mi SW 11.5 mph - N/A   Clear
7:15 PM 35.6 °F 27.1 °F 26.6 °F 70% 29.87 in 10.0 mi SW 12.7 mph - N/A   Clear
7:35 PM 35.6 °F 26.6 °F 26.6 °F 70% 29.86 in 10.0 mi SW 13.8 mph - N/A   Clear
7:55 PM 35.6 °F 27.1 °F 26.6 °F 70% 29.86 in 10.0 mi SW 12.7 mph - N/A   Clear
8:15 PM 33.8 °F 25.3 °F 26.6 °F 75% 29.84 in 10.0 mi SSW 11.5 mph - N/A   Clear
8:35 PM 33.8 °F 25.3 °F 26.6 °F 75% 29.84 in 10.0 mi SW 11.5 mph - N/A   Clear
8:55 PM 35.6 °F 26.6 °F 26.6 °F 70% 29.82 in 10.0 mi SSW 13.8 mph - N/A   Clear
9:15 PM 35.6 °F 27.1 °F 26.6 °F 70% 29.81 in 10.0 mi South 12.7 mph - N/A   Clear
9:35 PM 32.0 °F - 24.8 °F 75% 29.81 in 10.0 mi Calm Calm - N/A   Clear
9:55 PM 33.8 °F 25.3 °F 24.8 °F 70% 29.80 in 10.0 mi SSE 11.5 mph - N/A   Clear
10:15 PM 32.0 °F 22.5 °F 24.8 °F 75% 29.80 in 10.0 mi SSW 12.7 mph - N/A   Clear
10:35 PM 37.4 °F 29.3 °F 26.6 °F 65% 29.80 in 10.0 mi WSW 12.7 mph - N/A   Clear
10:55 PM 37.4 °F 28.9 °F 26.6 °F 65% 29.79 in 10.0 mi WSW 13.8 mph - N/A   Clear
11:15 PM 35.6 °F 27.5 °F 26.6 °F 70% 29.78 in 10.0 mi SW 11.5 mph - N/A   Clear
11:55 PM 35.6 °F 27.5 °F 26.6 °F 70% 29.77 in 10.0 mi SSW 11.5 mph - N/A   Clear